| time (UTC) | temp F | wind direction | speed MPH | gust MPH | rain 1hr in | rain 24hr in | rain mn in | humidity % | barometer mb |
| 20260901133627 | 74 | 171 | 0.0 | 1.0 | 0.00 | 0.00 | 0.00 | 65 | 1016.4 |
| 20260901133125 | 74 | 171 | 0.0 | 1.0 | 0.00 | 0.00 | 0.00 | 65 | 1016.4 |
| 20260901132620 | 73 | 249 | 0.0 | 0.0 | 0.00 | 0.00 | 0.00 | 66 | 1016.4 |
| 20260901132119 | 73 | 196 | 2.0 | 2.0 | 0.00 | 0.00 | 0.00 | 68 | 1016.3 |
| 20260901131619 | 72 | 156 | 1.0 | 1.0 | 0.00 | 0.00 | 0.00 | 70 | 1016.5 |
| 20260901131114 | 72 | 170 | 0.0 | 2.0 | 0.00 | 0.00 | 0.00 | 70 | 1016.5 |
| 20260901130609 | 71 | 171 | 0.0 | 1.0 | 0.00 | 0.00 | 0.00 | 71 | 1016.5 |
| 20260901130108 | 71 | 172 | 0.0 | 1.0 | 0.00 | 0.00 | 0.00 | 71 | 1016.4 |
| 20260901125606 | 71 | 176 | 0.0 | 0.0 | 0.00 | 0.00 | 0.00 | 71 | 1016.3 |
| 20260901125101 | 71 | 184 | 0.0 | 0.0 | 0.00 | 0.00 | 0.00 | 71 | 1016.1 |
| 20260901124556 | 71 | 186 | 0.0 | 0.0 | 0.00 | 0.00 | 0.00 | 71 | 1016.0 |
| 20260901124051 | 71 | 186 | 0.0 | 0.0 | 0.00 | 0.00 | 0.00 | 70 | 1016.1 |
| 20260901123545 | 71 | 201 | 0.0 | 0.0 | 0.00 | 0.00 | 0.00 | 70 | 1016.2 |
| 20260901123045 | 71 | 214 | 0.0 | 0.0 | 0.00 | 0.00 | 0.00 | 70 | 1016.1 |
| 20260901122544 | 71 | 198 | 2.0 | 2.0 | 0.00 | 0.00 | 0.00 | 70 | 1016.2 |
| 20260901122043 | 71 | 157 | 0.0 | 1.0 | 0.00 | 0.00 | 0.00 | 70 | 1016.1 |
| 20260901121543 | 70 | 275 | 0.0 | 5.0 | 0.00 | 0.00 | 0.00 | 71 | 1016.4 |
| 20260901121038 | 70 | 198 | 0.0 | 0.0 | 0.00 | 0.00 | 0.00 | 72 | 1016.0 |
| 20260901120533 | 70 | 168 | 0.0 | 0.0 | 0.00 | 0.00 | 0.00 | 73 | 1015.9 |
| 20260901120029 | 69 | 195 | 0.0 | 0.0 | 0.00 | 0.00 | 0.00 | 73 | 1016.1 |
| 20260901115524 | 69 | 170 | 0.0 | 1.0 | 0.00 | 0.00 | 0.00 | 73 | 1015.8 |
| 20260901115021 | 69 | 175 | 0.0 | 0.0 | 0.00 | 0.00 | 0.00 | 74 | 1015.9 |
| 20260901114516 | 69 | 189 | 0.0 | 1.0 | 0.00 | 0.00 | 0.00 | 74 | 1016.0 |
| 20260901114015 | 69 | 167 | 0.0 | 0.0 | 0.00 | 0.00 | 0.00 | 75 | 1015.9 |
| 20260901113514 | 68 | 167 | 0.0 | 0.0 | 0.00 | 0.00 | 0.00 | 75 | 1015.7 |
| 20260901113010 | 69 | 167 | 0.0 | 0.0 | 0.00 | 0.00 | 0.00 | 75 | 1015.9 |
| 20260901112504 | 69 | 167 | 0.0 | 0.0 | 0.00 | 0.00 | 0.00 | 75 | 1015.8 |
| 20260901111959 | 68 | 167 | 0.0 | 0.0 | 0.00 | 0.00 | 0.00 | 75 | 1015.5 |
| 20260901111457 | 69 | 168 | 0.0 | 0.0 | 0.00 | 0.00 | 0.00 | 74 | 1015.5 |
| 20260901110955 | 69 | 168 | 0.0 | 0.0 | 0.00 | 0.00 | 0.00 | 74 | 1015.7 |
| 20260901110452 | 69 | 169 | 0.0 | 0.0 | 0.00 | 0.00 | 0.00 | 73 | 1015.7 |
| 20260901105948 | 69 | 170 | 0.0 | 0.0 | 0.00 | 0.00 | 0.00 | 72 | 1015.7 |
| 20260901105443 | 70 | 171 | 0.0 | 0.0 | 0.00 | 0.00 | 0.00 | 71 | 1015.4 |
| 20260901104938 | 70 | 172 | 0.0 | 0.0 | 0.00 | 0.00 | 0.00 | 70 | 1015.7 |
| 20260901104434 | 71 | 174 | 0.0 | 0.0 | 0.00 | 0.00 | 0.00 | 70 | 1015.6 |
| 20260901103929 | 71 | 175 | 0.0 | 0.0 | 0.00 | 0.00 | 0.00 | 69 | 1015.5 |
| 20260901103429 | 71 | 176 | 0.0 | 0.0 | 0.00 | 0.00 | 0.00 | 69 | 1015.6 |
| 20260901102930 | 72 | 178 | 0.0 | 0.0 | 0.00 | 0.00 | 0.00 | 68 | 1015.5 |
| 20260901102424 | 72 | 179 | 0.0 | 1.0 | 0.00 | 0.00 | 0.00 | 67 | 1015.6 |
| 20260901101919 | 73 | 182 | 0.0 | 0.0 | 0.00 | 0.00 | 0.00 | 66 | 1015.7 |
| 20260901101414 | 73 | 270 | 0.0 | 0.0 | 0.00 | 0.00 | 0.00 | 66 | 1015.6 |
| 20260901100914 | 73 | 225 | 0.0 | 0.0 | 0.00 | 0.00 | 0.00 | 66 | 1015.8 |
| 20260901100408 | 73 | 181 | 0.0 | 1.0 | 0.00 | 0.00 | 0.00 | 66 | 1015.8 |
| 20260901095902 | 73 | 183 | 0.0 | 0.0 | 0.00 | 0.00 | 0.00 | 65 | 1015.8 |
| 20260901095400 | 73 | 187 | 0.0 | 1.0 | 0.00 | 0.00 | 0.00 | 65 | 1015.5 |
| 20260901094854 | 73 | 219 | 0.0 | 0.0 | 0.00 | 0.00 | 0.00 | 64 | 1015.6 |
| 20260901094348 | 74 | 191 | 0.0 | 0.0 | 0.00 | 0.00 | 0.00 | 63 | 1015.6 |
| 20260901093844 | 75 | 202 | 0.0 | 0.0 | 0.00 | 0.00 | 0.00 | 62 | 1015.5 |
| 20260901093343 | 75 | 238 | 0.0 | 2.0 | 0.00 | 0.00 | 0.00 | 61 | 1015.4 |
| 20260901092839 | 75 | 230 | 0.0 | 0.0 | 0.00 | 0.00 | 0.00 | 60 | 1015.4 |
| 20260901092334 | 74 | 187 | 0.0 | 0.0 | 0.00 | 0.00 | 0.00 | 61 | 1015.4 |
| 20260901091831 | 75 | 200 | 0.0 | 0.0 | 0.00 | 0.00 | 0.00 | 61 | 1015.5 |
| 20260901091330 | 75 | 242 | 0.0 | 2.0 | 0.00 | 0.00 | 0.00 | 61 | 1015.4 |
| 20260901090825 | 75 | 209 | 0.0 | 1.0 | 0.00 | 0.00 | 0.00 | 61 | 1015.2 |
| 20260901090320 | 75 | 207 | 0.0 | 0.0 | 0.00 | 0.00 | 0.00 | 61 | 1015.6 |
| 20260901085817 | 75 | 171 | 0.0 | 1.0 | 0.00 | 0.00 | 0.00 | 61 | 1015.5 |
| 20260901085316 | 75 | 186 | 1.0 | 2.0 | 0.00 | 0.00 | 0.00 | 61 | 1015.5 |
| 20260901084813 | 75 | 178 | 0.0 | 1.0 | 0.00 | 0.00 | 0.00 | 60 | 1015.4 |
| 20260901084309 | 75 | 183 | 0.0 | 0.0 | 0.00 | 0.00 | 0.00 | 60 | 1015.4 |
| 20260901083808 | 76 | 191 | 0.0 | 1.0 | 0.00 | 0.00 | 0.00 | 59 | 1015.4 |
| 20260901083303 | 76 | 223 | 0.0 | 2.0 | 0.00 | 0.00 | 0.00 | 59 | 1015.1 |
| 20260901082801 | 77 | 175 | 0.0 | 0.0 | 0.00 | 0.00 | 0.00 | 58 | 1015.5 |
| 20260901082257 | 77 | 178 | 0.0 | 1.0 | 0.00 | 0.00 | 0.00 | 57 | 1015.4 |
| 20260901081752 | 77 | 183 | 0.0 | 1.0 | 0.00 | 0.00 | 0.00 | 56 | 1015.2 |
| 20260901081252 | 78 | 195 | 0.0 | 0.0 | 0.00 | 0.00 | 0.00 | 56 | 1015.2 |
| 20260901080747 | 78 | 218 | 0.0 | 0.0 | 0.00 | 0.00 | 0.00 | 55 | 1015.5 |
| 20260901080246 | 78 | 180 | 0.0 | 0.0 | 0.00 | 0.00 | 0.00 | 55 | 1015.0 |
| 20260901075740 | 78 | 223 | 0.0 | 1.0 | 0.00 | 0.00 | 0.00 | 55 | 1014.8 |
| 20260901075235 | 78 | 226 | 2.0 | 5.0 | 0.00 | 0.00 | 0.00 | 55 | 1014.9 |
| 20260901074730 | 79 | 180 | 2.0 | 5.0 | 0.00 | 0.00 | 0.00 | 54 | 1014.9 |
| 20260901074225 | 79 | 193 | 2.0 | 5.0 | 0.00 | 0.00 | 0.00 | 54 | 1014.7 |
| 20260901073722 | 79 | 211 | 2.0 | 3.0 | 0.00 | 0.00 | 0.00 | 53 | 1014.7 |
| 20260901073217 | 79 | 216 | 2.0 | 2.0 | 0.00 | 0.00 | 0.00 | 53 | 1014.7 |
| 20260901072712 | 80 | 198 | 4.0 | 5.0 | 0.00 | 0.00 | 0.00 | 53 | 1014.4 |
| 20260901072207 | 80 | 277 | 2.0 | 2.0 | 0.00 | 0.00 | 0.00 | 52 | 1014.6 |
| 20260901071707 | 80 | 181 | 0.0 | 3.0 | 0.00 | 0.00 | 0.00 | 52 | 1014.5 |
| 20260901071201 | 80 | 225 | 1.0 | 3.0 | 0.00 | 0.00 | 0.00 | 52 | 1014.6 |
| 20260901070655 | 81 | 97 | 2.0 | 5.0 | 0.00 | 0.00 | 0.00 | 52 | 1014.6 |
| 20260901070150 | 81 | 161 | 1.0 | 2.0 | 0.00 | 0.00 | 0.00 | 51 | 1014.6 |
| 20260901065649 | 81 | 171 | 1.0 | 8.0 | 0.00 | 0.00 | 0.00 | 51 | 1014.7 |
| 20260901065144 | 81 | 250 | 0.0 | 7.0 | 0.00 | 0.00 | 0.00 | 51 | 1014.5 |
| 20260901064641 | 81 | 199 | 0.0 | 3.0 | 0.00 | 0.00 | 0.00 | 51 | 1014.4 |
| 20260901064137 | 81 | 72 | 0.0 | 3.0 | 0.00 | 0.00 | 0.00 | 51 | 1014.4 |
| 20260901063635 | 81 | 265 | 3.0 | 8.0 | 0.00 | 0.00 | 0.00 | 51 | 1014.7 |
| 20260901063130 | 81 | 180 | 2.0 | 3.0 | 0.00 | 0.00 | 0.00 | 51 | 1014.5 |
| 20260901062625 | 82 | 156 | 1.0 | 3.0 | 0.00 | 0.00 | 0.00 | 51 | 1014.9 |
| 20260901062121 | 82 | 207 | 2.0 | 5.0 | 0.00 | 0.00 | 0.00 | 51 | 1014.7 |
| 20260901061617 | 81 | 178 | 2.0 | 7.0 | 0.00 | 0.00 | 0.00 | 51 | 1014.5 |
| 20260901061111 | 81 | 209 | 3.0 | 6.0 | 0.00 | 0.00 | 0.00 | 52 | 1014.5 |
| 20260901060606 | 81 | 183 | 1.0 | 5.0 | 0.00 | 0.00 | 0.00 | 52 | 1014.6 |
| 20260901055556 | 82 | 141 | 0.0 | 2.0 | 0.00 | 0.00 | 0.00 | 52 | 1014.3 |
| 20260901055053 | 82 | 185 | 0.0 | 1.0 | 0.00 | 0.00 | 0.00 | 51 | 1014.3 |
| 20260901054550 | 82 | 176 | 0.0 | 5.0 | 0.00 | 0.00 | 0.00 | 51 | 1014.2 |
| 20260901054046 | 82 | 203 | 0.0 | 0.0 | 0.00 | 0.00 | 0.00 | 51 | 1014.1 |
| 20260901053542 | 82 | 30 | 0.0 | 5.0 | 0.00 | 0.00 | 0.00 | 51 | 1014.3 |
| 20260901053037 | 82 | 135 | 1.0 | 5.0 | 0.00 | 0.00 | 0.00 | 50 | 1014.2 |
| 20260901052537 | 82 | 182 | 1.0 | 6.0 | 0.00 | 0.00 | 0.00 | 50 | 1014.2 |
| 20260901052032 | 83 | 239 | 3.0 | 5.0 | 0.00 | 0.00 | 0.00 | 50 | 1014.2 |
| 20260901051527 | 83 | 149 | 0.0 | 0.0 | 0.00 | 0.00 | 0.00 | 50 | 1014.4 |
| 20260901051026 | 83 | 156 | 1.0 | 6.0 | 0.00 | 0.00 | 0.00 | 50 | 1014.5 |
| 20260901050521 | 83 | 181 | 0.0 | 1.0 | 0.00 | 0.00 | 0.00 | 49 | 1014.1 |
| 20260901050016 | 83 | 296 | 1.0 | 6.0 | 0.00 | 0.00 | 0.00 | 49 | 1014.3 |
| 20260901045511 | 84 | 114 | 0.0 | 3.0 | 0.00 | 0.00 | 0.00 | 49 | 1014.2 |
| 20260901045006 | 84 | 51 | 2.0 | 2.0 | 0.00 | 0.00 | 0.00 | 49 | 1014.3 |
| 20260901044502 | 84 | 139 | 1.0 | 7.0 | 0.00 | 0.00 | 0.00 | 49 | 1014.4 |
| 20260901043958 | 84 | 176 | 0.0 | 1.0 | 0.00 | 0.00 | 0.00 | 48 | 1014.2 |
| 20260901043453 | 84 | 179 | 2.0 | 9.0 | 0.00 | 0.00 | 0.00 | 48 | 1014.3 |
| 20260901042948 | 85 | 136 | 2.0 | 6.0 | 0.00 | 0.00 | 0.00 | 47 | 1014.4 |
| 20260901042447 | 85 | 164 | 0.0 | 2.0 | 0.00 | 0.00 | 0.00 | 47 | 1014.3 |
| 20260901041943 | 85 | 155 | 2.0 | 5.0 | 0.00 | 0.00 | 0.00 | 47 | 1014.3 |
| 20260901041438 | 85 | 145 | 1.0 | 5.0 | 0.00 | 0.00 | 0.00 | 46 | 1014.3 |
| 20260901040937 | 85 | 136 | 0.0 | 3.0 | 0.00 | 0.00 | 0.00 | 46 | 1014.0 |
| 20260901040433 | 85 | 169 | 0.0 | 5.0 | 0.00 | 0.00 | 0.00 | 46 | 1014.2 |
| 20260901035931 | 85 | 153 | 0.0 | 3.0 | 0.00 | 0.00 | 0.00 | 46 | 1014.1 |
| 20260901035430 | 86 | 200 | 1.0 | 2.0 | 0.00 | 0.00 | 0.00 | 46 | 1014.3 |
| 20260901034929 | 86 | 172 | 1.0 | 6.0 | 0.00 | 0.00 | 0.00 | 46 | 1014.2 |
| 20260901034424 | 86 | 136 | 1.0 | 3.0 | 0.00 | 0.00 | 0.00 | 46 | 1014.0 |
| 20260901033919 | 86 | 136 | 1.0 | 8.0 | 0.00 | 0.00 | 0.00 | 46 | 1013.9 |
| 20260901033418 | 86 | 116 | 0.0 | 5.0 | 0.00 | 0.00 | 0.00 | 45 | 1014.0 |
| 20260901032916 | 86 | 170 | 3.0 | 6.0 | 0.00 | 0.00 | 0.00 | 45 | 1013.9 |
| 20260901032416 | 86 | 136 | 0.0 | 2.0 | 0.00 | 0.00 | 0.00 | 45 | 1013.9 |
| 20260901031911 | 86 | 131 | 0.0 | 6.0 | 0.00 | 0.00 | 0.00 | 45 | 1014.0 |
| 20260901031407 | 86 | 110 | 3.0 | 5.0 | 0.00 | 0.00 | 0.00 | 45 | 1013.7 |
| 20260901030906 | 86 | 131 | 1.0 | 6.0 | 0.00 | 0.00 | 0.00 | 45 | 1013.8 |
| 20260901030402 | 87 | 91 | 0.0 | 5.0 | 0.00 | 0.00 | 0.00 | 44 | 1013.5 |
| 20260901025901 | 87 | 147 | 1.0 | 5.0 | 0.00 | 0.00 | 0.00 | 44 | 1013.5 |
| 20260901025356 | 87 | 120 | 3.0 | 6.0 | 0.00 | 0.00 | 0.00 | 44 | 1013.4 |
| 20260901024851 | 87 | 111 | 2.0 | 3.0 | 0.00 | 0.00 | 0.00 | 43 | 1013.2 |
| 20260901024350 | 88 | 103 | 0.0 | 5.0 | 0.00 | 0.00 | 0.00 | 42 | 1013.3 |
| 20260901023848 | 88 | 174 | 0.0 | 1.0 | 0.00 | 0.00 | 0.00 | 42 | 1013.2 |
| 20260901023344 | 89 | 88 | 1.0 | 3.0 | 0.00 | 0.00 | 0.00 | 41 | 1013.0 |
| 20260901022839 | 89 | 126 | 2.0 | 5.0 | 0.00 | 0.00 | 0.00 | 41 | 1012.7 |
| 20260901022335 | 89 | 115 | 0.0 | 3.0 | 0.00 | 0.00 | 0.00 | 41 | 1012.5 |
| 20260901021830 | 89 | 81 | 0.0 | 2.0 | 0.00 | 0.00 | 0.00 | 41 | 1012.4 |
| 20260901021325 | 89 | 104 | 0.0 | 0.0 | 0.00 | 0.00 | 0.00 | 41 | 1012.4 |
| 20260901020820 | 89 | 133 | 0.0 | 0.0 | 0.00 | 0.00 | 0.00 | 41 | 1012.4 |
| 20260901020315 | 89 | 105 | 2.0 | 5.0 | 0.00 | 0.00 | 0.00 | 41 | 1012.2 |
| 20260901015810 | 89 | 120 | 2.0 | 5.0 | 0.00 | 0.00 | 0.00 | 41 | 1012.0 |
| 20260901015306 | 89 | 121 | 1.0 | 5.0 | 0.00 | 0.00 | 0.00 | 41 | 1011.9 |
| 20260901014805 | 89 | 143 | 1.0 | 5.0 | 0.00 | 0.00 | 0.00 | 40 | 1011.9 |
| 20260901014301 | 89 | 136 | 3.0 | 3.0 | 0.00 | 0.00 | 0.00 | 40 | 1012.0 |
| 20260901013757 | 89 | 127 | 1.0 | 3.0 | 0.00 | 0.00 | 0.00 | 39 | 1011.7 |
| 20260901013252 | 90 | 90 | 2.0 | 5.0 | 0.00 | 0.00 | 0.00 | 38 | 1011.7 |
| 20260901012747 | 90 | 112 | 2.0 | 3.0 | 0.00 | 0.00 | 0.00 | 38 | 1011.7 |
| 20260901012247 | 91 | 141 | 2.0 | 5.0 | 0.00 | 0.00 | 0.00 | 38 | 1011.9 |
| 20260901011743 | 91 | 109 | 1.0 | 2.0 | 0.00 | 0.00 | 0.00 | 37 | 1011.5 |
| 20260901011238 | 92 | 128 | 3.0 | 3.0 | 0.00 | 0.00 | 0.00 | 36 | 1011.7 |
| 20260901010732 | 93 | 129 | 0.0 | 3.0 | 0.00 | 0.00 | 0.00 | 35 | 1011.7 |
| 20260901010227 | 93 | 132 | 0.0 | 5.0 | 0.00 | 0.00 | 0.00 | 34 | 1011.5 |
| 20260901005726 | 94 | 111 | 1.0 | 5.0 | 0.00 | 0.00 | 0.00 | 33 | 1011.7 |
| 20260901005222 | 95 | 136 | 1.0 | 5.0 | 0.00 | 0.00 | 0.00 | 32 | 1011.6 |
| 20260901004721 | 95 | 107 | 2.0 | 2.0 | 0.00 | 0.00 | 0.00 | 32 | 1011.6 |
| 20260901004216 | 96 | 100 | 2.0 | 6.0 | 0.00 | 0.00 | 0.00 | 32 | 1011.3 |
| 20260901003716 | 96 | 102 | 5.0 | 7.0 | 0.00 | 0.00 | 0.00 | 31 | 1011.5 |
| 20260901003216 | 97 | 108 | 3.0 | 7.0 | 0.00 | 0.00 | 0.00 | 31 | 1011.6 |
| 20260901002709 | 98 | 113 | 3.0 | 7.0 | 0.00 | 0.00 | 0.00 | 30 | 1011.4 |
| 20260901002204 | 98 | 142 | 3.0 | 7.0 | 0.00 | 0.00 | 0.00 | 29 | 1011.5 |
| 20260901001700 | 98 | 123 | 4.0 | 9.0 | 0.00 | 0.00 | 0.00 | 29 | 1011.5 |
| 20260901001154 | 99 | 126 | 2.0 | 7.0 | 0.00 | 0.00 | 0.00 | 29 | 1011.5 |
| 20260901000650 | 99 | 74 | 5.0 | 8.0 | 0.00 | 0.00 | 0.00 | 28 | 1011.4 |
| 20260901000145 | 99 | 160 | 0.0 | 6.0 | 0.00 | 0.00 | 0.00 | 28 | 1011.5 |
| 20260831235644 | 100 | 90 | 2.0 | 7.0 | 0.00 | 0.00 | 0.00 | 28 | 1011.3 |
| 20260831235140 | 100 | 159 | 3.0 | 8.0 | 0.00 | 0.00 | 0.00 | 28 | 1011.3 |
| 20260831234639 | 100 | 130 | 3.0 | 9.0 | 0.00 | 0.00 | 0.00 | 27 | 1011.6 |
| 20260831234135 | 100 | 126 | 0.0 | 9.0 | 0.00 | 0.00 | 0.00 | 27 | 1011.7 |
| 20260831233630 | 101 | 99 | 1.0 | 6.0 | 0.00 | 0.00 | 0.00 | 27 | 1011.5 |
| 20260831233125 | 101 | 83 | 6.0 | 8.0 | 0.00 | 0.00 | 0.00 | 27 | 1011.5 |
| 20260831232620 | 101 | 181 | 1.0 | 5.0 | 0.00 | 0.00 | 0.00 | 26 | 1011.6 |
| 20260831232116 | 102 | 156 | 0.0 | 3.0 | 0.00 | 0.00 | 0.00 | 26 | 1011.6 |
| 20260831231613 | 101 | 108 | 7.0 | 10.0 | 0.00 | 0.00 | 0.00 | 26 | 1011.4 |
| 20260831231108 | 102 | 80 | 5.0 | 9.0 | 0.00 | 0.00 | 0.00 | 26 | 1011.4 |
| 20260831230604 | 102 | 110 | 3.0 | 8.0 | 0.00 | 0.00 | 0.00 | 26 | 1011.5 |
| 20260831225558 | 102 | 139 | 2.0 | 7.0 | 0.00 | 0.00 | 0.00 | 26 | 1011.7 |
| 20260831225053 | 103 | 102 | 4.0 | 8.0 | 0.00 | 0.00 | 0.00 | 26 | 1011.6 |
| 20260831224548 | 103 | 154 | 0.0 | 3.0 | 0.00 | 0.00 | 0.00 | 26 | 1011.6 |
| 20260831224044 | 103 | 149 | 2.0 | 6.0 | 0.00 | 0.00 | 0.00 | 26 | 1011.9 |
| 20260831223539 | 103 | 169 | 2.0 | 9.0 | 0.00 | 0.00 | 0.00 | 26 | 1011.6 |
| 20260831223035 | 103 | 164 | 5.0 | 10.0 | 0.00 | 0.00 | 0.00 | 26 | 1011.7 |
| 20260831222531 | 103 | 135 | 2.0 | 13.0 | 0.00 | 0.00 | 0.00 | 26 | 1011.9 |
| 20260831222030 | 104 | 147 | 4.0 | 6.0 | 0.00 | 0.00 | 0.00 | 26 | 1011.9 |
| 20260831221526 | 103 | 189 | 6.0 | 10.0 | 0.00 | 0.00 | 0.00 | 26 | 1011.7 |
| 20260831221022 | 103 | 130 | 3.0 | 9.0 | 0.00 | 0.00 | 0.00 | 26 | 1011.9 |
| 20260831220517 | 104 | 199 | 0.0 | 2.0 | 0.00 | 0.00 | 0.00 | 26 | 1012.0 |
| 20260831220012 | 104 | 163 | 3.0 | 6.0 | 0.00 | 0.00 | 0.00 | 26 | 1011.7 |
| 20260831215508 | 104 | 70 | 2.0 | 13.0 | 0.00 | 0.00 | 0.00 | 26 | 1012.2 |
| 20260831215003 | 104 | 181 | 2.0 | 6.0 | 0.00 | 0.00 | 0.00 | 27 | 1011.7 |
| 20260831214501 | 104 | 95 | 4.0 | 8.0 | 0.00 | 0.00 | 0.00 | 26 | 1012.1 |
| 20260831213956 | 105 | 215 | 3.0 | 8.0 | 0.00 | 0.00 | 0.00 | 26 | 1012.0 |
| 20260831213453 | 104 | 196 | 2.0 | 3.0 | 0.00 | 0.00 | 0.00 | 27 | 1012.0 |
| 20260831212952 | 105 | 187 | 2.0 | 3.0 | 0.00 | 0.00 | 0.00 | 26 | 1012.0 |
| 20260831212449 | 105 | 268 | 2.0 | 3.0 | 0.00 | 0.00 | 0.00 | 26 | 1012.3 |
| 20260831211943 | 105 | 100 | 2.0 | 7.0 | 0.00 | 0.00 | 0.00 | 26 | 1012.2 |
| 20260831211438 | 104 | 200 | 3.0 | 8.0 | 0.00 | 0.00 | 0.00 | 26 | 1012.2 |
| 20260831210937 | 104 | 303 | 1.0 | 3.0 | 0.00 | 0.00 | 0.00 | 27 | 1012.7 |
| 20260831210433 | 104 | 231 | 3.0 | 6.0 | 0.00 | 0.00 | 0.00 | 27 | 1012.7 |
| 20260831205928 | 104 | 165 | 5.0 | 7.0 | 0.00 | 0.00 | 0.00 | 27 | 1012.5 |
| 20260831205424 | 104 | 202 | 4.0 | 10.0 | 0.00 | 0.00 | 0.00 | 27 | 1012.9 |
| 20260831204919 | 104 | 191 | 0.0 | 9.0 | 0.00 | 0.00 | 0.00 | 27 | 1012.9 |
| 20260831204418 | 104 | 201 | 2.0 | 6.0 | 0.00 | 0.00 | 0.00 | 27 | 1013.0 |
| 20260831203918 | 103 | 180 | 1.0 | 7.0 | 0.00 | 0.00 | 0.00 | 27 | 1012.9 |
| 20260831203413 | 104 | 175 | 5.0 | 7.0 | 0.00 | 0.00 | 0.00 | 27 | 1012.7 |
| 20260831202911 | 104 | 243 | 0.0 | 2.0 | 0.00 | 0.00 | 0.00 | 27 | 1013.0 |
| 20260831202406 | 104 | 222 | 3.0 | 8.0 | 0.00 | 0.00 | 0.00 | 27 | 1013.2 |
| 20260831201906 | 104 | 228 | 4.0 | 9.0 | 0.00 | 0.00 | 0.00 | 27 | 1013.1 |
| 20260831201404 | 103 | 216 | 4.0 | 7.0 | 0.00 | 0.00 | 0.00 | 28 | 1013.3 |
| 20260831200901 | 104 | 148 | 0.0 | 3.0 | 0.00 | 0.00 | 0.00 | 27 | 1013.3 |
| 20260831200355 | 104 | 63 | 3.0 | 6.0 | 0.00 | 0.00 | 0.00 | 28 | 1013.4 |
| 20260831195850 | 104 | 102 | 3.0 | 5.0 | 0.00 | 0.00 | 0.00 | 27 | 1013.2 |
| 20260831195346 | 103 | 173 | 0.0 | 7.0 | 0.00 | 0.00 | 0.00 | 28 | 1013.4 |
| 20260831194841 | 103 | 265 | 3.0 | 8.0 | 0.00 | 0.00 | 0.00 | 29 | 1013.5 |
| 20260831194337 | 102 | 201 | 3.0 | 5.0 | 0.00 | 0.00 | 0.00 | 29 | 1013.7 |
| 20260831193836 | 103 | 193 | 0.0 | 10.0 | 0.00 | 0.00 | 0.00 | 29 | 1013.3 |
| 20260831193331 | 103 | 286 | 0.0 | 7.0 | 0.00 | 0.00 | 0.00 | 29 | 1013.7 |
| 20260831192826 | 103 | 185 | 0.0 | 0.0 | 0.00 | 0.00 | 0.00 | 30 | 1013.3 |
| 20260831192147 | 102 | 254 | 4.0 | 6.0 | 0.00 | 0.00 | 0.00 | 30 | 1013.8 |
| 20260831191643 | 102 | 254 | 4.0 | 6.0 | 0.00 | 0.00 | 0.00 | 30 | 1013.8 |
| 20260831191139 | 102 | 338 | 5.0 | 7.0 | 0.00 | 0.00 | 0.00 | 29 | 1013.9 |
| 20260831190634 | 102 | 338 | 5.0 | 7.0 | 0.00 | 0.00 | 0.00 | 29 | 1013.9 |
| 20260831190132 | 102 | 338 | 5.0 | 7.0 | 0.00 | 0.00 | 0.00 | 29 | 1013.9 |
| 20260831185628 | 102 | 214 | 1.0 | 3.0 | 0.00 | 0.00 | 0.00 | 30 | 1014.0 |
| 20260831184548 | 101 | 104 | 0.0 | 8.0 | 0.00 | 0.00 | 0.00 | 32 | 1014.2 |
| 20260831184044 | 101 | 104 | 0.0 | 8.0 | 0.00 | 0.00 | 0.00 | 32 | 1014.2 |
| 20260831183543 | 100 | 195 | 0.0 | 3.0 | 0.00 | 0.00 | 0.00 | 32 | 1014.2 |
| 20260831183043 | 100 | 195 | 0.0 | 3.0 | 0.00 | 0.00 | 0.00 | 32 | 1014.2 |
| 20260831182537 | 101 | 254 | 3.0 | 9.0 | 0.00 | 0.00 | 0.00 | 32 | 1014.2 |
| 20260831182032 | 100 | 140 | 3.0 | 5.0 | 0.00 | 0.00 | 0.00 | 33 | 1014.0 |
| 20260831181527 | 100 | 221 | 4.0 | 8.0 | 0.00 | 0.00 | 0.00 | 33 | 1014.3 |
| 20260831181027 | 99 | 214 | 0.0 | 2.0 | 0.00 | 0.00 | 0.00 | 33 | 1014.2 |
| 20260831180521 | 100 | 240 | 0.0 | 2.0 | 0.00 | 0.00 | 0.00 | 33 | 1014.4 |
| 20260831180017 | 99 | 258 | 0.0 | 3.0 | 0.00 | 0.00 | 0.00 | 34 | 1014.3 |
| 20260831175512 | 98 | 114 | 3.0 | 6.0 | 0.00 | 0.00 | 0.00 | 34 | 1014.3 |
| 20260831175009 | 98 | 226 | 0.0 | 9.0 | 0.00 | 0.00 | 0.00 | 34 | 1014.5 |
| 20260831174509 | 97 | 146 | 1.0 | 13.0 | 0.00 | 0.00 | 0.00 | 35 | 1014.6 |
| 20260831174003 | 97 | 308 | 2.0 | 11.0 | 0.00 | 0.00 | 0.00 | 34 | 1014.4 |
| 20260831173501 | 97 | 214 | 4.0 | 8.0 | 0.00 | 0.00 | 0.00 | 35 | 1014.5 |
| 20260831172957 | 97 | 42 | 1.0 | 5.0 | 0.00 | 0.00 | 0.00 | 35 | 1014.5 |
| 20260831172453 | 96 | 188 | 4.0 | 9.0 | 0.00 | 0.00 | 0.00 | 36 | 1014.7 |
| 20260831171948 | 97 | 261 | 2.0 | 5.0 | 0.00 | 0.00 | 0.00 | 36 | 1014.6 |
| 20260831171443 | 96 | 175 | 5.0 | 8.0 | 0.00 | 0.00 | 0.00 | 36 | 1014.5 |
| 20260831170940 | 96 | 229 | 3.0 | 7.0 | 0.00 | 0.00 | 0.00 | 37 | 1014.9 |
| 20260831170436 | 95 | 104 | 3.0 | 10.0 | 0.00 | 0.00 | 0.00 | 38 | 1014.5 |
| 20260831165933 | 95 | 198 | 3.0 | 8.0 | 0.00 | 0.00 | 0.00 | 37 | 1014.6 |
| 20260831165428 | 94 | 207 | 3.0 | 7.0 | 0.00 | 0.00 | 0.00 | 38 | 1014.6 |
| 20260831164925 | 94 | 176 | 3.0 | 5.0 | 0.00 | 0.00 | 0.00 | 38 | 1014.7 |
| 20260831164421 | 93 | 205 | 3.0 | 9.0 | 0.00 | 0.00 | 0.00 | 38 | 1014.7 |
| 20260831163915 | 94 | 186 | 0.0 | 1.0 | 0.00 | 0.00 | 0.00 | 39 | 1014.4 |
| 20260831163411 | 93 | 243 | 0.0 | 0.0 | 0.00 | 0.00 | 0.00 | 39 | 1014.5 |
| 20260831162910 | 93 | 194 | 2.0 | 5.0 | 0.00 | 0.00 | 0.00 | 39 | 1014.5 |
| 20260831162405 | 91 | 234 | 3.0 | 6.0 | 0.00 | 0.00 | 0.00 | 40 | 1014.7 |
| 20260831161903 | 91 | 135 | 4.0 | 9.0 | 0.00 | 0.00 | 0.00 | 41 | 1014.6 |
| 20260831161400 | 91 | 180 | 4.0 | 8.0 | 0.00 | 0.00 | 0.00 | 41 | 1014.7 |
| 20260831160855 | 90 | 60 | 3.0 | 7.0 | 0.00 | 0.00 | 0.00 | 41 | 1014.7 |
| 20260831160350 | 90 | 226 | 3.0 | 8.0 | 0.00 | 0.00 | 0.00 | 41 | 1014.4 |
| 20260831155845 | 90 | 182 | 3.0 | 10.0 | 0.00 | 0.00 | 0.00 | 41 | 1014.8 |
| 20260831155344 | 89 | 93 | 5.0 | 9.0 | 0.00 | 0.00 | 0.00 | 41 | 1014.6 |
| 20260831154840 | 89 | 113 | 2.0 | 10.0 | 0.00 | 0.00 | 0.00 | 41 | 1014.6 |
| 20260831154337 | 89 | 71 | 3.0 | 9.0 | 0.00 | 0.00 | 0.00 | 42 | 1014.3 |
| 20260831153835 | 89 | 152 | 2.0 | 8.0 | 0.00 | 0.00 | 0.00 | 42 | 1014.4 |
| 20260831153331 | 89 | 194 | 3.0 | 6.0 | 0.00 | 0.00 | 0.00 | 42 | 1014.5 |
| 20260831152827 | 88 | 249 | 2.0 | 10.0 | 0.00 | 0.00 | 0.00 | 43 | 1014.5 |
| 20260831152322 | 88 | 150 | 2.0 | 10.0 | 0.00 | 0.00 | 0.00 | 43 | 1014.4 |
| 20260831151818 | 89 | 175 | 2.0 | 5.0 | 0.00 | 0.00 | 0.00 | 42 | 1014.4 |
| 20260831151316 | 88 | 193 | 0.0 | 11.0 | 0.00 | 0.00 | 0.00 | 42 | 1014.4 |
| 20260831150812 | 88 | 168 | 2.0 | 6.0 | 0.00 | 0.00 | 0.00 | 43 | 1014.2 |
| 20260831150307 | 88 | 312 | 5.0 | 7.0 | 0.00 | 0.00 | 0.00 | 42 | 1014.6 |
| 20260831145806 | 88 | 87 | 1.0 | 3.0 | 0.00 | 0.00 | 0.00 | 43 | 1014.4 |
| 20260831145306 | 88 | 143 | 1.0 | 8.0 | 0.00 | 0.00 | 0.00 | 43 | 1014.6 |
| 20260831144758 | 87 | 78 | 3.0 | 5.0 | 0.00 | 0.00 | 0.00 | 44 | 1014.4 |
| 20260831144255 | 87 | 133 | 0.0 | 6.0 | 0.00 | 0.00 | 0.00 | 43 | 1014.5 |
| 20260831143754 | 87 | 117 | 3.0 | 5.0 | 0.00 | 0.00 | 0.00 | 43 | 1014.8 |
| 20260831143249 | 86 | 156 | 4.0 | 7.0 | 0.00 | 0.00 | 0.00 | 44 | 1014.6 |
| 20260831142744 | 86 | 97 | 2.0 | 7.0 | 0.00 | 0.00 | 0.00 | 44 | 1014.6 |
| 20260831142239 | 86 | 214 | 3.0 | 6.0 | 0.00 | 0.00 | 0.00 | 45 | 1014.9 |
| 20260831141350 | 85 | 135 | 0.0 | 5.0 | 0.00 | 0.00 | 0.00 | 46 | 1014.8 |
| 20260831140845 | 85 | 135 | 0.0 | 5.0 | 0.00 | 0.00 | 0.00 | 46 | 1014.8 |
| 20260831140339 | 84 | 118 | 1.0 | 5.0 | 0.00 | 0.00 | 0.00 | 48 | 1014.8 |
| 20260831135838 | 83 | 97 | 2.0 | 5.0 | 0.00 | 0.00 | 0.00 | 48 | 1014.8 |
| 20260831134412 | 80 | 136 | 2.0 | 3.0 | 0.00 | 0.00 | 0.00 | 57 | 1014.8 |